Weather History for Casper, WY

Change the Weather History Date:

Tuesday, October 8, 2013

  Actual Average Record
Temperature  
Mean Temperature 55 °F 48 °F  
Max Temperature 70 °F 63 °F 78 °F (1953)
Min Temperature 39 °F 33 °F 12 °F (1970)
Degree Days  
Heating Degree Days 10 17  
Month to date heating degree days 170 128  
Since 1 July heating degree days 337 413  
Cooling Degree Days 0 0  
Month to date cooling degree days 0 0  
Year to date cooling degree days 618 422  
Growing Degree Days 5 (Base 50)    
Moisture  
Dew Point 34 °F    
Average Humidity 56    
Maximum Humidity 85    
Minimum Humidity 26    
Precipitation  
Precipitation 0.00 in 0.04 in 0.39 in (1995)
Month to date precipitation 2.16 0.32  
Year to date precipitation 12.83 10.48  
Snow  
Snow 0.00 in 0.20 in - ()
Month to date snowfall 16.2 1.6  
Since 1 July snowfall 21.0 3.4  
Since 1 September snowfall 21.0 3.4  
Snow Depth 0.00 in    
Sea Level Pressure  
Sea Level Pressure 29.71 in    
Wind  
Wind Speed 16 mph (SW)    
Max Wind Speed 31 mph    
Max Gust Speed 37 mph    
Visibility 10 miles    
Events      
T = Trace of Precipitation, MM = Missing Value Source: NWS Daily Summary

Daily Weather History Graph

Daily Weather History Graph

Search for Another Location

Airport:

Trip Planner

Search our weather history database for the weather conditions in past years. The results will help you decide how hot, cold, wet, or windy it might be!

Date:

Astronomy

Oct. 08, 2013 Rise Set
Actual Time 7:11 AM MDT 6:34 PM MDT
Civil Twilight 6:43 AM MDT 7:02 PM MDT
Nautical Twilight 6:10 AM MDT 7:35 PM MDT
Astronomical Twilight 5:37 AM MDT 8:08 PM MDT
Moon 11:14 AM MDT (10/8) 9:07 PM MDT (10/8)
Length of Visible Light 12h 19m
Length of Day
11h 23m
Waxing Crescent, 16% of the Moon is Illuminated
Oct 8
Waxing Crescent
Oct 11
First Quarter
Oct 18
Full
Oct 26
Last Quarter
Nov 3
New

Hourly Weather History & Observations

Time (MDT) Temp. Windchill Dew Point Humidity Pressure Visibility Wind Dir Wind Speed Gust Speed Precip Events Conditions
12:53 AM 52.0 °F - 36.0 °F 54% 29.76 in 10.0 mi SW 20.7 mph - N/A   Clear
1:53 AM 52.0 °F - 36.0 °F 54% 29.75 in 10.0 mi SW 18.4 mph - N/A   Clear
2:53 AM 54.0 °F - 36.0 °F 51% 29.71 in 10.0 mi SSW 26.5 mph 36.8 mph N/A   Clear
3:53 AM 53.1 °F - 35.1 °F 50% 29.70 in 10.0 mi SSW 21.9 mph 29.9 mph N/A   Clear
4:53 AM 51.1 °F - 35.1 °F 54% 29.70 in 10.0 mi SW 20.7 mph 26.5 mph N/A   Clear
5:53 AM 48.9 °F - 35.1 °F 59% 29.73 in 10.0 mi SW 13.8 mph - N/A   Clear
6:53 AM 50.0 °F - 34.0 °F 54% 29.74 in 10.0 mi SW 16.1 mph - N/A   Clear
7:53 AM 50.0 °F - 33.1 °F 52% 29.75 in 10.0 mi SW 12.7 mph 21.9 mph N/A   Clear
8:53 AM 55.9 °F - 33.1 °F 42% 29.72 in 10.0 mi SSW 24.2 mph 32.2 mph N/A   Clear
9:53 AM 60.1 °F - 34.0 °F 38% 29.69 in 10.0 mi SSW 23.0 mph 31.1 mph N/A   Clear
10:53 AM 62.1 °F - 35.1 °F 37% 29.68 in 10.0 mi SSW 24.2 mph 33.4 mph N/A   Clear
11:53 AM 64.0 °F - 37.0 °F 37% 29.67 in 10.0 mi SSW 24.2 mph 33.4 mph N/A   Clear
12:53 PM 63.0 °F - 32.0 °F 31% 29.66 in 10.0 mi SW 19.6 mph 27.6 mph N/A   Clear
1:53 PM 68.0 °F - 32.0 °F 26% 29.62 in 10.0 mi WSW 16.1 mph 26.5 mph N/A   Clear
2:53 PM 68.0 °F - 34.0 °F 28% 29.62 in 10.0 mi SSW 18.4 mph 25.3 mph N/A   Clear
3:53 PM 66.9 °F - 30.0 °F 25% 29.62 in 10.0 mi SW 20.7 mph 27.6 mph N/A   Clear
4:53 PM 66.0 °F - 32.0 °F 28% 29.63 in 10.0 mi SW 18.4 mph 23.0 mph N/A   Clear
5:53 PM 63.0 °F - 34.0 °F 34% 29.67 in 10.0 mi SW 11.5 mph - N/A   Clear
6:53 PM 55.0 °F - 35.1 °F 47% 29.70 in 10.0 mi SW 11.5 mph - N/A   Clear
7:53 PM 48.9 °F - 35.1 °F 59% 29.73 in 10.0 mi WSW 9.2 mph - N/A   Clear
8:53 PM 48.9 °F - 34.0 °F 56% 29.73 in 10.0 mi WSW 8.1 mph - N/A   Clear
9:53 PM 46.0 °F 42.5 °F 34.0 °F 63% 29.75 in 10.0 mi WNW 6.9 mph - N/A   Clear
10:53 PM 41.0 °F 37.1 °F 36.0 °F 82% 29.80 in 10.0 mi NW 5.8 mph - N/A   Clear
11:53 PM 39.9 °F 34.5 °F 35.1 °F 83% 29.84 in 10.0 mi NW 8.1 mph - N/A   Clear